Location: Ebersheim
(48.3033°N, 7.4991°E)
Time: 06:28:12
(UTC+00:00)

Cosmos 1937 Rocket - Pass Details

Date: 27 February 2020
Orbit: 747 x 780 km, 74.0° (Epoch: 28 March)

Event Time Altitude Azimuth Distance (km) Brightness Sun altitude
Rises 18:04:33 0° 340° (NNW) 3,256 7.0 -9.8°
Reaches altitude 10° 18:07:02 10° 345° (NNW) 2,320 6.2 -10.2°
Maximum altitude 18:12:10 51° 62° (ENE) 958 3.7 -11.1°
Drops below altitude 10° 18:17:12 10° 138° (SE) 2,283 5.6 -11.9°
Enters shadow 18:19:02 - 142° (SE) 2,977 6.2 -12.2°
